#datint,netname,site,siteID,timestamp,IntT,BattV,AirT2,AirT,AirT_Avg,AirT_Max,AirT_Min,RH_Avg,RH_Max,RH_Min,EA_Avg,Td_Avg,Td_Max,Td_Min,WindS_Smp,WindS_Avg,WindD_Avg,WindD_SD,WindS_Max,ETo,ETr,SoilT4,SoilT8,SoilVWC8,SolarW_Avg,wetstate_Avg,wetT_Avg,Precip_accum,Precip_WPG,Precip_TB
15min,AgWx,beryljct,423,31AUG2019:00:00:00,66.2,12.98,64.6,67.7,65.3,68.7,62.1,46,57,37,0.965,43.8,46.7,41.1,4.341,2.8,54,46,4.9,0.00005,0.00012,69.7,70.6,10,0,.,.,17.19,0.00,0.00
15min,AgWx,beryljct,423,31AUG2019:00:15:00,65.5,12.98,62.6,63.3,66.5,67.5,63.3,44,53,40,1.054,43.7,46.1,42.4,0.658,0.9,5.8,24,3.4,-0.00024,-0.00033,69.4,70.5,10,0,.,.,17.19,0.00,0.00
15min,AgWx,beryljct,423,31AUG2019:00:30:00,64.7,12.97,66.3,65.4,64.7,67.3,62.7,47,54,40,0.938,43.9,46.2,41.9,2.609,1.1,242,12,3.5,-0.00021,-0.00028,69.2,70.5,11,0,.,.,17.19,0.00,0.00
15min,AgWx,beryljct,423,31AUG2019:00:45:00,64.1,12.96,63.2,63.5,64.2,68.1,60.2,49,62,37,0.964,44.0,47.4,40.7,0.877,1.3,236,7.6,3.0,-0.00017,-0.00021,68.9,70.4,10,0,.,.,17.19,0.00,0.00
15min,AgWx,beryljct,423,31AUG2019:01:00:00,63.2,12.95,61.8,62.1,63.1,63.8,62.1,50,54,46,0.989,44.1,45.6,42.8,2.126,1.0,219,0.1,2.1,-0.00022,-0.00030,68.7,70.3,10,0,.,.,17.19,0.00,0.00
15min,AgWx,beryljct,423,31AUG2019:01:15:00,62.4,12.93,59.9,59.9,61.5,63.2,59.9,54,62,47,1.055,44.8,46.9,42.7,0,1.3,219,0.0,2.8,-0.00017,-0.00022,68.5,70.2,10,0,.,.,17.19,0.00,0.00
15min,AgWx,beryljct,423,31AUG2019:01:30:00,61.5,12.93,60.0,59.3,60.1,61.9,58.1,58,66,51,1.028,45.2,46.8,43.5,0.46,0.7,108,0.8,3.0,-0.00027,-0.00040,68.2,70.2,10,0,.,.,17.20,0.00,0.00
15min,AgWx,beryljct,423,31AUG2019:01:45:00,60.8,12.93,60.5,59.7,60.0,61.3,59.3,59,62,52,1.045,45.5,46.4,43.6,0,2.3,128,9.2,3.9,-0.00007,-0.00007,68.0,70.1,10,0,.,.,17.20,0.00,0.00
15min,AgWx,beryljct,423,31AUG2019:02:00:00,60.1,12.92,58.0,57.3,59.0,60.9,57.2,60,67,53,1.057,45.2,46.4,43.5,4.099,2.3,177,24,4.2,-0.00008,-0.00008,67.8,70.0,10,0,.,.,17.20,0.00,0.00
15min,AgWx,beryljct,423,31AUG2019:02:15:00,59.3,12.9,61.8,58.6,56.7,58.6,55.1,68,74,57,0.963,46.2,47.1,43.6,3.486,3.7,209,1.1,4.9,-0.00000,0.00003,67.5,69.9,10,0,.,.,17.20,0.00,0.00
15min,AgWx,beryljct,423,31AUG2019:02:30:00,58.7,12.9,57.8,58.0,57.9,59.9,55.8,64,73,55,1.028,45.8,47.3,43.4,0,2.0,196,32,3.6,-0.00011,-0.00013,67.3,69.8,10,0,.,.,17.20,0.00,0.00
15min,AgWx,beryljct,423,31AUG2019:02:45:00,58.2,12.9,55.9,56.7,58.9,60.8,56.7,60,70,54,1.101,45.0,47.1,44.1,1.578,0.6,133,18,3.7,-0.00028,-0.00042,67.1,69.8,10,0,.,.,17.20,0.00,0.00
15min,AgWx,beryljct,423,31AUG2019:03:00:00,57.6,12.88,54.7,54.9,55.1,56.6,53.9,73,77,70,1.038,46.7,47.8,45.6,0.767,1.0,302,19,3.2,-0.00023,-0.00032,66.9,69.7,10,0,.,.,17.20,0.00,0.00
15min,AgWx,beryljct,423,31AUG2019:03:15:00,56.9,12.86,54.3,55.0,55.5,56.2,54.8,68,71,64,1.011,45.0,46.0,44.2,0,0.7,304,0.1,2.2,-0.00026,-0.00038,66.7,69.6,10,0,.,.,17.20,0.00,0.00
15min,AgWx,beryljct,423,31AUG2019:03:30:00,56.3,12.88,60.5,58.9,54.6,58.9,52.8,72,80,55,0.935,45.6,46.8,42.8,3.705,2.8,249,7.2,4.9,-0.00009,-0.00009,66.5,69.5,10,0,.,.,17.20,0.00,0.00
15min,AgWx,beryljct,423,31AUG2019:03:45:00,56.1,12.87,57.5,57.1,57.6,59.4,55.8,61,68,54,0.997,44.2,45.4,42.7,2.609,3.2,268,2.0,4.9,0.00001,0.00004,66.2,69.4,10,0,.,.,17.20,0.00,0.00
15min,AgWx,beryljct,423,31AUG2019:04:00:00,56.2,12.86,55.3,56.6,57.7,59.3,56.0,61,68,56,0.989,44.5,45.5,43.5,2.346,1.7,274,40,6.1,-0.00014,-0.00017,66.1,69.3,10,0,.,.,17.20,0.00,0.00
15min,AgWx,beryljct,423,31AUG2019:04:15:00,55.7,12.86,55.3,54.7,53.3,56.6,51.5,74,82,63,0.981,45.3,46.3,44.1,1.03,2.2,71,21,5.1,-0.00013,-0.00016,65.9,69.1,10,0,.,.,17.20,0.00,0.00
15min,AgWx,beryljct,423,31AUG2019:04:30:00,54.9,12.86,55.5,53.2,52.6,54.8,51.8,77,81,67,1.043,45.7,46.5,43.9,1.644,2.0,183,39,5.6,-0.00015,-0.00020,65.7,69.1,10,0,.,.,17.20,0.00,0.00
15min,AgWx,beryljct,423,31AUG2019:04:45:00,54.4,12.84,53.0,54.6,53.7,55.1,52.8,72,75,67,0.990,44.8,45.6,44.3,1.6,2.8,174,25,5.9,-0.00008,-0.00009,65.5,69.0,10,0,.,.,17.20,0.00,0.00
15min,AgWx,beryljct,423,31AUG2019:05:00:00,54.0,12.84,52.8,52.9,54.1,55.8,52.4,70,76,64,1.031,44.5,45.4,43.8,3.157,1.9,151,13,5.2,-0.00015,-0.00018,65.3,68.9,10,0,.,.,17.20,0.00,0.00
15min,AgWx,beryljct,423,31AUG2019:05:15:00,53.5,12.84,54.6,54.2,52.1,54.2,50.9,77,81,68,0.975,45.0,45.4,43.9,2.039,3.1,186,18,5.0,-0.00009,-0.00010,65.0,68.8,10,0,.,.,17.20,0.00,0.00
15min,AgWx,beryljct,423,31AUG2019:05:30:00,53.2,12.83,52.3,54.4,54.0,55.1,52.9,69,75,65,0.976,44.2,45.1,43.5,0.417,0.4,198,0.4,1.9,-0.00028,-0.00043,64.9,68.7,11,0,.,.,17.20,0.00,0.00
15min,AgWx,beryljct,423,31AUG2019:05:45:00,52.8,12.82,53.0,52.5,52.3,54.8,50.2,75,82,66,1.001,44.5,45.2,43.7,0,0.2,199,1.5,1.2,-0.00031,-0.00047,64.7,68.5,10,0,.,.,17.20,0.00,0.00
15min,AgWx,beryljct,423,31AUG2019:06:00:00,52.4,12.82,49.9,50.6,52.3,54.7,49.7,73,81,66,0.983,44.0,44.6,43.1,0,1.8,167,28,8.2,-0.00016,-0.00021,64.5,68.5,10,0,.,.,17.20,0.00,0.00
15min,AgWx,beryljct,423,31AUG2019:06:15:00,51.9,12.82,53.7,52.5,51.2,52.5,50.2,77,81,72,0.967,44.4,45.1,43.7,1.03,1.1,149,11,3.6,-0.00022,-0.00031,64.3,68.4,10,0,.,.,17.20,0.00,0.00
15min,AgWx,beryljct,423,31AUG2019:06:30:00,51.6,12.82,50.5,51.0,52.7,55.0,50.9,70,77,62,0.983,43.2,44.2,42.3,0.175,1.0,190,25,2.5,0.00008,0.00014,64.1,68.3,10,0,.,.,17.20,0.00,0.00
15min,AgWx,beryljct,423,31AUG2019:06:45:00,51.1,12.82,48.3,48.3,49.9,51.2,48.3,82,86,77,0.971,44.5,45.1,43.4,3.508,1.3,222,49,3.7,0.00007,0.00011,63.9,68.2,10,0,.,.,17.20,0.00,0.00
15min,AgWx,beryljct,423,31AUG2019:07:00:00,50.5,12.82,47.2,47.6,48.0,48.5,47.4,85,87,82,0.953,43.6,44.5,42.7,0.438,2.2,337,2.1,4.5,0.00010,0.00016,63.7,68.1,10,2,.,.,17.20,0.00,0.00
15min,AgWx,beryljct,423,31AUG2019:07:15:00,49.8,12.82,51.8,50.8,48.8,50.8,47.5,82,86,76,0.965,43.7,44.1,43.3,1.074,0.2,338,0.1,1.1,0.00007,0.00008,63.6,67.9,10,9,.,.,17.20,0.00,0.00
15min,AgWx,beryljct,423,31AUG2019:07:30:00,49.6,12.82,50.4,50.0,49.8,51.2,49.1,79,82,74,0.984,43.7,44.2,42.9,0.702,0.4,338,0.1,1.4,0.00029,0.00032,63.4,67.8,10,45,.,.,17.20,0.00,0.00
15min,AgWx,beryljct,423,31AUG2019:07:45:00,50.0,12.86,52.1,52.4,51.4,52.8,50.1,77,81,70,0.952,44.5,45.6,43.2,2.039,0.6,337,1.6,2.1,0.00048,0.00054,63.2,67.7,10,85,.,.,17.20,0.00,0.00
15min,AgWx,beryljct,423,31AUG2019:08:00:00,51.6,12.82,54.6,54.0,53.3,54.0,52.1,74,76,71,1.079,45.3,46.6,43.4,1.995,1.4,335,3.5,2.0,0.00073,0.00085,63.0,67.6,10,129,.,.,17.20,0.00,0.00
15min,AgWx,beryljct,423,31AUG2019:08:15:00,53.7,12.86,55.5,55.5,55.0,55.5,54.0,73,77,68,1.073,46.5,48.0,44.5,0.723,1.9,339,0.4,3.2,0.00101,0.00117,62.9,67.5,10,177,.,.,17.20,0.00,0.00
15min,AgWx,beryljct,423,31AUG2019:08:30:00,56.2,12.94,58.7,57.9,56.7,57.9,55.5,71,76,67,1.151,47.4,49.7,45.7,0,0.1,339,0.0,0.7,0.00123,0.00131,62.7,67.4,10,227,.,.,17.20,0.00,0.00
15min,AgWx,beryljct,423,31AUG2019:08:45:00,58.9,13.09,60.0,59.7,58.7,59.7,57.9,68,78,60,1.146,48.3,51.2,45.3,1.293,0.8,339,0.5,2.4,0.00158,0.00174,62.6,67.3,10,279,.,.,17.19,0.00,0.00
15min,AgWx,beryljct,423,31AUG2019:09:00:00,61.6,13.34,61.1,61.3,61.2,62.0,59.8,65,73,59,1.299,49.3,52.5,47.4,1.008,0.9,339,0.7,2.1,0.00195,0.00214,62.4,67.2,10,332,.,.,17.19,0.00,0.00
15min,AgWx,beryljct,423,31AUG2019:09:15:00,64.2,13.67,63.7,63.3,62.2,63.3,61.2,65,73,55,1.210,50.3,54.0,46.2,2.083,1.6,339,3.1,2.1,0.00232,0.00258,62.4,67.1,10,387,.,.,17.19,0.00,0.00
15min,AgWx,beryljct,423,31AUG2019:09:30:00,66.6,14.21,65.5,65.5,64.8,65.6,63.4,56,61,50,1.158,48.8,50.9,45.5,0.877,1.1,85,17,2.4,0.00271,0.00299,62.3,67.0,10,439,.,.,17.19,0.00,0.00
15min,AgWx,beryljct,423,31AUG2019:09:45:00,69.0,14.18,67.7,67.5,66.7,67.5,65.6,51,57,45,1.044,48.1,50.6,45.4,2.214,1.6,105,10,2.5,0.00312,0.00349,62.3,66.9,10,490,.,.,17.18,0.00,0.00
15min,AgWx,beryljct,423,31AUG2019:10:00:00,71.3,14.14,68.9,69.0,68.2,69.0,67.5,50,58,45,1.249,48.8,53.2,45.8,1.381,1.5,110,1.9,2.3,0.00349,0.00388,62.3,66.8,10,539,.,.,17.18,0.00,0.00
15min,AgWx,beryljct,423,31AUG2019:10:15:00,73.5,14.1,71.4,70.8,69.8,70.8,69.0,54,58,49,1.493,52.4,55.4,49.5,1.622,1.7,102,4.9,3.0,0.00385,0.00428,62.4,66.7,10,587,.,.,17.18,0.00,0.00
15min,AgWx,beryljct,423,31AUG2019:10:30:00,75.5,14.04,72.4,72.7,71.9,72.8,70.8,54,60,47,1.480,54.5,57.0,50.7,2.214,2.4,96,4.3,3.2,0.00427,0.00480,62.6,66.7,10,632,.,.,17.17,0.00,0.00
15min,AgWx,beryljct,423,31AUG2019:10:45:00,77.5,13.99,74.8,74.8,73.9,74.8,72.6,43,57,31,0.927,49.8,56.7,42.2,1.885,1.9,90,1.1,2.9,0.00463,0.00519,62.8,66.6,10,675,.,.,17.17,0.00,0.00
15min,AgWx,beryljct,423,31AUG2019:11:00:00,79.3,14.04,75.3,75.4,74.9,75.4,74.7,43,51,28,1.514,50.8,55.8,40.0,1.754,2.5,81,7.5,3.4,0.00500,0.00565,63.1,66.5,10,715,.,.,17.17,0.00,0.00
15min,AgWx,beryljct,423,31AUG2019:11:15:00,80.8,13.94,77.7,77.8,76.6,77.9,75.4,45,50,38,1.462,53.5,57.1,48.6,1.315,1.9,91,3.4,2.9,0.00528,0.00588,63.4,66.4,10,753,.,.,17.17,0.00,0.00
15min,AgWx,beryljct,423,31AUG2019:11:30:00,82.4,13.98,79.1,79.1,78.4,79.1,77.8,47,55,41,1.474,56.4,60.7,52.7,3.025,2.4,94,5.9,3.8,0.00563,0.00630,63.8,66.3,10,787,.,.,17.16,0.00,0.00
15min,AgWx,beryljct,423,31AUG2019:11:45:00,83.7,13.49,81.0,81.0,80.4,81.0,79.2,40,53,29,1.204,53.5,62.1,45.6,3.42,2.8,93,5.8,3.8,0.00599,0.00679,64.3,66.3,10,818,.,.,17.16,0.00,0.00
15min,AgWx,beryljct,423,31AUG2019:12:00:00,84.8,13.47,82.4,82.5,81.6,82.5,80.9,37,50,28,1.234,52.3,60.7,45.8,2.631,2.9,90,5.8,3.8,0.00626,0.00711,64.9,66.3,10,846,.,.,17.16,0.00,0.00
15min,AgWx,beryljct,423,31AUG2019:12:15:00,86.1,13.42,83.4,84.0,83.3,84.0,82.5,29,37,21,0.914,47.6,54.5,39.0,2.368,2.9,70,8.7,4.4,0.00650,0.00744,65.5,66.3,10,867,.,.,17.16,0.00,0.00
15min,AgWx,beryljct,423,31AUG2019:12:30:00,87.4,13.38,84.2,84.6,84.2,84.7,83.7,30,45,18,1.556,49.2,60.5,36.3,1.929,3.4,62,11,5.9,0.00672,0.00776,66.1,66.3,10,883,.,.,17.16,0.00,0.00
15min,AgWx,beryljct,423,31AUG2019:12:45:00,88.6,13.49,85.8,85.6,85.2,86.4,84.3,27,43,14,0.966,47.3,59.6,31.8,7.388,3.8,47,21,8.3,0.00693,0.00807,66.7,66.3,10,900,.,.,17.15,0.00,0.00
15min,AgWx,beryljct,423,31AUG2019:13:00:00,89.4,13.4,88.0,86.8,84.8,86.8,84.1,28,41,14,0.766,47.9,58.3,31.2,8.22,6.7,75,42,12.7,0.00741,0.00903,67.4,66.3,10,916,.,.,17.16,0.00,0.00
15min,AgWx,beryljct,423,31AUG2019:13:15:00,89.7,13.35,89.1,88.1,87.5,88.2,86.2,19,24,14,0.818,40.5,45.3,32.8,4.428,8.1,187,18,13.4,0.00798,0.01006,68.1,66.3,10,927,.,.,17.16,0.00,0.00
15min,AgWx,beryljct,423,31AUG2019:13:30:00,89.9,13.35,86.1,88.9,88.4,89.3,87.6,16,25,11,0.689,36.9,48.6,27.6,8.79,8.1,206,26,14.1,0.00809,0.01022,68.8,66.4,10,932,.,.,17.16,0.00,0.00
15min,AgWx,beryljct,423,31AUG2019:13:45:00,90.2,13.3,89.3,89.8,89.0,89.8,88.4,13,20,9.3,0.556,32.3,42.9,23.9,11.95,9.0,194,21,14.6,0.00834,0.01073,69.4,66.4,10,934,.,.,17.16,0.00,0.00
15min,AgWx,beryljct,423,31AUG2019:14:00:00,90.5,13.32,88.1,88.1,88.9,89.9,87.9,14,19,9.1,0.650,33.9,40.0,23.5,9.58,11.1,202,18,17.2,0.00865,0.01141,69.9,66.5,10,930,.,.,17.16,0.00,0.00
15min,AgWx,beryljct,423,31AUG2019:14:15:00,90.7,13.34,90.9,90.3,88.7,90.3,87.5,14,20,9.0,0.468,33.1,41.6,23.3,3.793,8.0,194,20,16.4,0.00808,0.01028,70.4,66.7,10,924,.,.,17.15,0.00,0.00
15min,AgWx,beryljct,423,31AUG2019:14:30:00,91.1,13.31,88.6,89.1,89.0,90.6,88.2,14,17,9.4,0.728,33.6,38.3,24.9,13.79,11.1,202,17,18.2,0.00854,0.01128,70.8,66.7,10,913,.,.,17.16,0.00,0.00
15min,AgWx,beryljct,423,31AUG2019:14:45:00,91.6,13.39,84.7,86.7,88.9,90.3,86.7,14,24,8.6,0.990,33.1,46.1,22.4,8.81,7.4,182,29,15.0,0.00777,0.00984,71.3,66.9,10,895,.,.,17.15,0.00,0.00
15min,AgWx,beryljct,423,31AUG2019:15:00:00,91.7,13.4,84.7,86.2,88.1,89.6,86.2,16,25,12,0.876,35.6,46.3,29.1,11.22,11.6,177,21,16.1,0.00828,0.01103,71.6,67.0,10,878,.,.,17.16,0.00,0.00
15min,AgWx,beryljct,423,31AUG2019:15:15:00,91.7,13.29,90.0,89.7,88.7,90.1,86.1,14,20,9.6,0.537,33.2,42.4,25.0,7.782,8.6,196,24,16.4,0.00769,0.00996,72.0,67.2,10,854,.,.,17.16,0.00,0.00
15min,AgWx,beryljct,423,31AUG2019:15:30:00,92.3,13.3,87.9,88.3,89.5,90.3,88.3,14,19,8.9,0.789,33.7,41.3,23.3,10.06,8.6,192,17,15.5,0.00756,0.00984,72.4,67.3,10,829,.,.,17.15,0.00,0.00
15min,AgWx,beryljct,423,31AUG2019:15:45:00,92.4,13.26,85.7,85.5,87.8,89.7,84.9,18,30,12,0.866,38.7,50.4,30.3,15.59,7.8,171,22,16.7,0.00702,0.00902,72.7,67.4,10,797,.,.,17.16,0.00,0.00
15min,AgWx,beryljct,423,31AUG2019:16:00:00,92.0,13.26,89.5,88.8,88.0,89.0,85.6,16,21,12,0.671,36.4,43.4,29.0,12.96,8.5,221,29,15.4,0.00679,0.00893,73.1,67.6,10,739,.,.,17.16,0.00,0.00
15min,AgWx,beryljct,423,31AUG2019:16:15:00,92.0,13.32,87.3,89.3,87.7,89.4,84.6,19,33,12,0.673,39.6,52.3,29.3,9.14,7.3,169,18,15.6,0.00621,0.00805,73.4,67.8,10,701,.,.,17.15,0.00,0.00
15min,AgWx,beryljct,423,31AUG2019:16:30:00,92.0,13.28,88.4,88.4,88.2,89.5,86.6,16,20,13,0.831,36.3,41.9,30.5,4.801,9.6,182,16,16.2,0.00663,0.00896,73.7,67.9,10,687,.,.,17.15,0.00,0.00
15min,AgWx,beryljct,423,31AUG2019:16:45:00,92.3,13.28,86.8,87.9,88.5,89.4,87.6,16,21,13,0.741,36.6,43.1,30.7,3.464,6.8,190,24,12.3,0.00579,0.00758,74.0,68.1,10,647,.,.,17.16,0.00,0.00
15min,AgWx,beryljct,423,31AUG2019:17:00:00,92.2,13.34,87.5,87.5,87.6,89.7,85.2,17,25,12,0.709,37.6,45.6,29.9,9.95,8.2,173,25,16.7,0.00558,0.00756,74.3,68.2,10,588,.,.,17.16,0.00,0.00
15min,AgWx,beryljct,423,31AUG2019:17:15:00,91.8,13.29,88.6,88.8,88.1,89.0,86.2,15,22,12,0.615,35.1,42.7,29.7,8.88,10.2,187,16,17.9,0.00585,0.00824,74.5,68.4,10,559,.,.,17.16,0.00,0.00
15min,AgWx,beryljct,423,31AUG2019:17:30:00,91.6,13.33,84.7,85.4,88.0,89.0,85.4,15,19,11,0.751,34.3,40.0,26.7,9.36,9.3,175,16,16.3,0.00532,0.00753,74.7,68.6,10,512,.,.,17.16,0.00,0.00
15min,AgWx,beryljct,423,31AUG2019:17:45:00,90.9,13.29,83.5,85.8,86.4,88.4,85.2,17,21,12,0.759,36.6,41.2,30.3,9.76,8.5,171,13,13.4,0.00469,0.00665,74.8,68.7,10,463,.,.,17.16,0.00,0.00
15min,AgWx,beryljct,423,31AUG2019:18:00:00,89.9,13.29,85.9,85.7,85.3,87.3,83.2,18,25,13,0.625,37.4,44.1,31.2,13.26,9.3,166,14,14.5,0.00445,0.00649,74.9,68.9,10,413,.,.,17.16,0.00,0.00
15min,AgWx,beryljct,423,31AUG2019:18:15:00,88.8,13.35,86.2,87.7,85.7,87.9,82.9,16,24,12,0.621,34.4,42.1,28.4,8.99,9.6,172,16,14.5,0.00423,0.00636,74.9,69.0,10,361,.,.,17.16,0.00,0.00
15min,AgWx,beryljct,423,31AUG2019:18:30:00,88.5,13.34,87.7,86.2,86.6,87.6,85.8,16,21,12,0.742,34.8,41.6,29.1,7.322,6.5,183,15,10.1,0.00317,0.00471,74.9,69.2,10,309,.,.,17.16,0.00,0.00
15min,AgWx,beryljct,423,31AUG2019:18:45:00,88.0,13.31,86.0,86.2,85.6,86.8,83.5,17,21,14,0.585,35.7,40.4,30.7,8.79,7.1,180,17,11.2,0.00289,0.00448,74.9,69.3,10,257,.,.,17.16,0.00,0.00
15min,AgWx,beryljct,423,31AUG2019:19:00:00,86.9,13.33,80.9,81.5,83.3,86.5,81.0,20,23,13,0.779,37.4,41.2,29.9,6.467,7.3,163,14,10.2,0.00250,0.00404,74.8,69.4,10,206,.,.,17.16,0.00,0.00
15min,AgWx,beryljct,423,31AUG2019:19:15:00,85.3,13.19,81.0,83.4,83.3,84.3,81.3,17,22,14,0.676,33.7,38.9,30.1,4.384,6.7,174,11,10.0,0.00146,0.00204,74.6,69.6,10,158,.,.,17.17,0.00,0.00
15min,AgWx,beryljct,423,31AUG2019:19:30:00,84.2,13.16,81.2,82.0,83.0,84.4,81.7,17,21,13,0.685,33.2,38.0,28.2,5.283,5.8,182,7.8,8.2,0.00119,0.00171,74.5,69.7,10,112,.,.,17.17,0.00,0.00
15min,AgWx,beryljct,423,31AUG2019:19:45:00,82.7,13.13,81.5,81.5,82.0,82.8,81.3,17,19,15,0.599,32.4,35.3,29.9,3.376,4.4,176,4.1,5.6,0.00082,0.00123,74.2,69.8,10,71,.,.,17.17,0.00,0.00
15min,AgWx,beryljct,423,31AUG2019:20:00:00,81.0,13.11,78.0,78.3,80.6,81.6,78.3,17,21,15,0.610,31.1,34.9,29.0,4.209,3.9,177,6.3,4.4,0.00053,0.00085,74.0,69.9,10,23,.,.,17.17,0.00,0.00
15min,AgWx,beryljct,423,31AUG2019:20:15:00,78.7,13.09,76.6,77.4,77.0,79.0,74.5,19,26,16,0.537,31.7,37.8,28.2,2.85,3.7,179,4.6,4.8,0.00041,0.00066,73.8,70.0,10,6,.,.,17.17,0.01,0.00
15min,AgWx,beryljct,423,31AUG2019:20:30:00,76.4,13.08,77.1,77.2,76.7,77.8,75.2,18,22,16,0.539,29.7,34.0,27.6,4.713,4.0,175,7.4,5.6,0.00045,0.00072,73.5,70.0,10,1,.,.,17.18,0.00,0.00
15min,AgWx,beryljct,423,31AUG2019:20:45:00,74.9,13.07,73.9,73.8,75.1,77.2,72.5,21,25,17,0.561,31.8,35.4,28.2,4.472,5.6,187,13,8.3,0.00068,0.00101,73.2,70.1,10,0,.,.,17.18,0.00,0.00
15min,AgWx,beryljct,423,31AUG2019:21:00:00,73.2,13.06,71.9,72.4,73.3,74.1,72.4,21,23,20,0.608,31.3,32.8,30.2,3.946,4.1,180,4.9,5.0,0.00042,0.00067,72.9,70.1,11,0,.,.,17.18,0.00,0.00
15min,AgWx,beryljct,423,31AUG2019:21:15:00,71.8,13.05,71.2,74.2,72.1,74.4,70.8,24,28,19,0.580,33.1,36.4,29.1,3.946,4.3,191,11,5.2,0.00042,0.00066,72.5,70.2,10,0,.,.,17.18,0.00,0.00
15min,AgWx,beryljct,423,31AUG2019:21:30:00,70.7,13.03,72.8,71.4,72.6,74.2,70.6,22,25,19,0.582,31.3,33.4,29.9,4.319,4.0,172,6.9,4.5,0.00039,0.00062,72.2,70.3,10,0,.,.,17.18,0.00,0.00
15min,AgWx,beryljct,423,31AUG2019:21:45:00,69.5,13.04,69.0,68.1,71.3,73.4,67.3,23,33,19,0.625,31.2,37.9,27.9,6.16,4.8,162,9.7,7.0,0.00050,0.00076,71.8,70.3,10,0,.,.,17.18,0.00,0.00
15min,AgWx,beryljct,423,31AUG2019:22:00:00,67.9,13.03,62.7,62.3,66.5,68.4,62.0,31,42,27,0.766,34.5,38.8,32.8,7.037,5.9,159,6.2,7.4,0.00052,0.00074,71.5,70.3,11,0,.,.,17.18,0.00,0.00
15min,AgWx,beryljct,423,31AUG2019:22:15:00,65.8,13.01,63.1,62.7,61.8,65.0,60.2,40,46,31,0.709,37.4,39.9,33.8,4.626,6.4,155,6.5,7.4,0.00042,0.00059,71.2,70.2,10,0,.,.,17.18,0.00,0.00
15min,AgWx,beryljct,423,31AUG2019:22:30:00,64.6,13.02,63.9,67.3,66.7,69.2,62.8,28,36,24,0.675,32.7,35.7,30.5,5.393,4.9,170,5.8,6.3,0.00043,0.00063,70.9,70.3,10,0,.,.,17.18,0.00,0.00
15min,AgWx,beryljct,423,31AUG2019:22:45:00,64.2,13.01,63.0,66.3,66.2,67.2,63.3,30,38,26,0.615,33.4,37.8,31.5,5.568,5.4,162,7.0,6.4,0.00048,0.00069,70.5,70.3,11,0,.,.,17.19,0.00,0.00
15min,AgWx,beryljct,423,31AUG2019:23:00:00,63.5,13,60.6,62.1,64.2,66.3,62.1,33,37,29,0.702,34.3,36.2,32.5,6.182,6.1,157,4.4,7.0,0.00049,0.00070,70.2,70.2,11,0,.,.,17.19,0.00,0.00
15min,AgWx,beryljct,423,31AUG2019:23:15:00,62.4,12.99,59.5,58.7,59.4,63.4,57.3,45,51,32,0.759,37.6,39.5,33.3,7.3,7.5,148,7.2,9.7,0.00043,0.00058,69.9,70.2,11,0,.,.,17.19,0.00,0.00
15min,AgWx,beryljct,423,31AUG2019:23:30:00,61.5,12.97,63.2,64.0,61.3,64.0,58.8,37,45,30,0.605,34.3,37.4,31.6,5.546,6.8,163,6.1,8.4,0.00048,0.00066,69.6,70.1,10,0,.,.,17.19,0.00,0.00
15min,AgWx,beryljct,423,31AUG2019:23:45:00,61.5,12.97,58.4,58.9,62.3,66.8,58.8,38,51,25,0.822,35.9,40.6,29.7,2.806,3.1,258,69,6.9,0.00013,0.00023,69.3,70.1,11,0,.,.,17.19,0.00,0.00
15min,AgWx,beryljct,423,01SEP2019:00:00:00,60.4,12.96,52.4,52.7,55.5,58.9,52.6,59,69,49,0.905,41.4,42.6,39.5,3.727,2.6,31,67,4.8,-0.00005,-0.00003,69.0,70.1,11,0,.,.,17.19,0.00,0.00
15min,AgWx,beryljct,423,01SEP2019:00:15:00,58.7,12.95,56.4,55.9,53.8,55.9,52.4,62,67,53,0.810,41.1,42.1,39.1,0,1.7,218,51,4.5,-0.00013,-0.00017,68.7,70.0,10,0,.,.,17.20,0.00,0.00
15min,AgWx,beryljct,423,01SEP2019:00:30:00,57.4,12.94,55.9,57.3,56.9,57.9,55.9,49,53,45,0.796,38.2,39.1,36.9,0.044,0.5,258,4.2,1.8,-0.00029,-0.00044,68.4,70.0,10,0,.,.,17.20,0.00,0.00
15min,AgWx,bigpiney,439,31AUG2019:00:00:00,52.6,12.74,47.8,48.3,51.7,58.3,47.2,51,61,37,0.680,33.8,34.8,32.3,1.929,1.6,129,28,3.2,0.00010,0.00017,53.2,51.0,41,0,0,0.0,4.17,0.00,0.00
15min,AgWx,bigpiney,439,31AUG2019:00:15:00,52.1,12.73,48.7,48.0,49.0,49.9,48.0,57,60,55,0.657,34.6,35.0,33.8,2.784,2.7,125,12,3.6,0.00015,0.00022,53.2,51.0,41,0,0,0.0,4.17,0.00,0.00
15min,AgWx,bigpiney,439,31AUG2019:00:30:00,51.5,12.72,47.7,47.2,47.5,48.9,46.2,60,63,58,0.657,34.4,34.8,33.8,3.288,3.6,170,20,5.2,0.00018,0.00025,53.1,51.0,41,0,0,0.0,4.17,0.00,0.00
15min,AgWx,bigpiney,439,31AUG2019:00:45:00,50.9,12.71,44.7,45.2,49.0,51.9,45.2,55,65,49,0.660,33.5,34.1,32.7,2.083,4.1,211,10,6.2,0.00024,0.00033,53.1,51.0,41,0,0,0.0,4.17,0.00,0.00
15min,AgWx,bigpiney,439,31AUG2019:01:00:00,50.2,12.71,45.6,45.1,45.8,46.6,44.7,64,66,62,0.660,34.2,34.6,33.7,2.17,2.5,236,16,4.2,0.00010,0.00016,53.0,51.0,41,0,0,0.0,4.17,0.00,0.00
15min,AgWx,bigpiney,439,31AUG2019:01:15:00,49.8,12.7,43.1,43.1,46.4,48.7,42.9,61,68,56,0.641,33.6,34.5,32.1,1.359,3.0,252,38,4.8,0.00014,0.00021,52.9,51.0,41,0,0,0.0,4.17,0.00,0.00
15min,AgWx,bigpiney,439,31AUG2019:01:30:00,49.4,12.68,47.1,45.8,43.9,45.8,43.0,65,68,60,0.633,32.9,34.2,32.5,4.735,3.0,264,14,4.8,0.00011,0.00016,52.8,51.0,41,0,0,0.0,4.17,0.00,0.00
15min,AgWx,bigpiney,439,31AUG2019:01:45:00,48.8,12.69,47.6,47.5,46.8,47.8,45.7,58,60,57,0.649,32.9,33.8,32.1,4.187,4.2,307,19,4.8,0.00021,0.00029,52.8,51.0,41,0,0,0.0,4.17,0.00,0.00
15min,AgWx,bigpiney,439,31AUG2019:02:00:00,48.4,12.67,44.9,45.0,45.6,47.5,44.6,62,66,58,0.659,33.3,34.0,31.9,0.636,2.9,319,26,4.5,0.00013,0.00019,52.7,51.1,41,0,0,0.0,4.17,0.00,0.00
15min,AgWx,bigpiney,439,31AUG2019:02:15:00,48.0,12.67,47.1,46.5,45.2,46.7,43.9,63,66,59,0.635,33.3,34.1,32.6,0,1.3,260,19,3.5,0.00004,0.00007,52.6,51.0,41,0,0,0.0,4.17,0.00,0.00
15min,AgWx,bigpiney,439,31AUG2019:02:30:00,47.5,12.66,42.0,44.9,44.6,46.9,43.7,62,65,57,0.635,32.4,33.6,31.2,2.806,2.2,225,5.7,4.1,0.00009,0.00014,52.6,51.0,41,0,0,0.0,4.17,0.00,0.00
15min,AgWx,bigpiney,439,31AUG2019:02:45:00,46.8,12.65,44.2,47.6,45.5,47.6,43.9,62,65,57,0.650,33.2,33.8,31.4,3.266,3.2,213,17,4.9,0.00014,0.00020,52.5,51.1,41,0,0,0.0,4.17,0.00,0.00
15min,AgWx,bigpiney,439,31AUG2019:03:00:00,46.2,12.63,48.7,48.6,48.2,49.7,46.3,57,60,54,0.637,33.5,33.8,32.5,3.88,2.6,163,19,3.9,0.00015,0.00022,52.4,51.0,41,0,0,0.0,4.17,0.00,0.00
15min,AgWx,bigpiney,439,31AUG2019:03:15:00,45.8,12.64,49.4,49.1,47.8,49.8,45.2,57,62,53,0.639,33.1,33.7,31.5,1.929,2.7,159,15,4.5,0.00016,0.00023,52.4,51.1,41,0,0,0.0,4.17,0.00,0.00
15min,AgWx,bigpiney,439,31AUG2019:03:30:00,45.8,12.63,48.0,47.5,48.1,49.8,47.0,56,59,53,0.646,33.1,33.5,32.6,2.981,1.8,181,31,4.0,0.00010,0.00016,52.3,51.0,41,0,0,0.0,4.17,0.00,0.00
15min,AgWx,bigpiney,439,31AUG2019:03:45:00,45.6,12.62,47.8,46.5,47.7,48.7,46.1,57,62,55,0.665,33.4,34.1,32.8,3.266,2.6,200,7.2,3.9,0.00014,0.00021,52.2,51.0,41,0,0,0.0,4.17,0.00,0.00
15min,AgWx,bigpiney,439,31AUG2019:04:00:00,45.2,12.61,46.2,46.7,46.9,47.3,46.5,60,62,59,0.651,33.8,34.2,33.3,3.157,3.2,203,10,4.1,0.00016,0.00023,52.1,51.0,41,0,0,0.0,4.17,0.00,0.00
15min,AgWx,bigpiney,439,31AUG2019:04:15:00,44.7,12.6,43.4,41.5,46.3,47.8,41.5,60,68,57,0.602,33.2,34.2,30.6,2.653,2.6,204,7.2,3.9,0.00012,0.00019,52.0,51.0,41,0,0,0.0,4.17,0.00,0.00
15min,AgWx,bigpiney,439,31AUG2019:04:30:00,44.1,12.59,42.9,43.0,42.1,44.4,39.9,70,75,64,0.636,33.0,34.0,31.4,0,1.4,242,22,3.6,0.00003,0.00005,52.0,51.0,41,0,0,0.0,4.17,0.00,0.00
15min,AgWx,bigpiney,439,31AUG2019:04:45:00,43.6,12.59,45.5,44.5,42.9,44.5,39.7,67,73,61,0.646,32.8,34.0,28.0,1.271,1.6,258,33,2.8,0.00004,0.00007,51.9,51.0,41,0,0,0.0,4.17,0.00,0.00
15min,AgWx,bigpiney,439,31AUG2019:05:00:00,43.1,12.57,44.1,43.9,44.2,45.2,42.4,63,66,61,0.623,32.5,33.5,30.9,2.039,1.3,290,6.9,3.2,0.00004,0.00006,51.8,51.0,41,0,0,0.0,4.17,0.00,0.00
15min,AgWx,bigpiney,439,31AUG2019:05:15:00,42.8,12.56,43.8,43.6,43.7,44.4,42.8,63,65,61,0.607,31.9,32.5,31.0,2.411,2.2,283,7.6,3.0,0.00009,0.00014,51.7,50.9,41,0,0,0.0,4.17,0.00,0.00
15min,AgWx,bigpiney,439,31AUG2019:05:30:00,42.4,12.55,45.2,45.4,44.5,45.5,43.5,60,63,57,0.586,31.3,31.9,30.3,2.389,2.8,277,15,4.8,0.00013,0.00019,51.7,51.0,41,0,0,0.0,4.17,0.00,0.00
15min,AgWx,bigpiney,439,31AUG2019:05:45:00,42.1,12.54,42.1,44.4,46.3,47.3,44.4,55,57,53,0.557,31.1,31.6,29.7,3.88,3.0,290,16,4.6,0.00016,0.00024,51.6,51.0,41,0,0,0.0,4.17,0.00,0.00
15min,AgWx,bigpiney,439,31AUG2019:06:00:00,41.9,12.53,33.8,34.3,39.2,44.1,34.3,67,76,57,0.507,29.0,30.4,26.9,6.007,3.8,236,23,6.0,0.00012,0.00017,51.5,50.9,41,0,0,0.0,4.17,0.00,0.00
15min,AgWx,bigpiney,439,31AUG2019:06:15:00,41.1,12.52,36.6,36.1,35.1,36.1,34.2,78,79,76,0.547,28.9,29.4,27.5,4.362,5.1,219,7.4,6.4,0.00008,0.00011,51.4,50.9,41,0,0,0.0,4.17,0.00,0.00
15min,AgWx,bigpiney,439,31AUG2019:06:30:00,40.5,12.51,38.5,37.7,36.1,37.7,35.2,76,78,73,0.563,29.3,30.6,28.7,3.047,4.0,239,5.1,4.8,0.00008,0.00010,51.3,50.9,41,0,0,0.0,4.17,0.00,0.00
15min,AgWx,bigpiney,439,31AUG2019:06:45:00,39.9,12.5,33.9,33.7,35.2,37.7,33.5,77,81,71,0.531,28.6,29.7,27.7,4.012,4.2,216,8.9,4.9,0.00008,0.00011,51.2,50.9,41,3,0,0.0,4.17,0.00,0.00
15min,AgWx,bigpiney,439,31AUG2019:07:00:00,39.2,12.51,35.8,35.3,33.3,35.4,32.0,82,85,78,0.548,28.5,30.2,27.1,0,2.3,249,46,4.2,-0.00028,-0.00025,51.2,51.0,41,15,0,0.0,4.17,0.00,0.00
15min,AgWx,bigpiney,439,31AUG2019:07:15:00,38.9,12.54,33.9,34.1,35.1,35.7,34.1,78,81,77,0.537,29.0,29.4,28.7,0,0.5,185,38,2.3,-0.00024,-0.00024,51.1,50.9,41,46,0,0.0,4.17,0.00,0.00